User: anonymous   Login
Location: Unspecified
(36.6913°N, 0.0000°E)
Time: 07:51:02
(UTC+00:00)
Language:

Alexis Rocket - Orbit

View from above orbital plane
View from above orbital plane
View from above satellite
View from above satellite

Ground track
Ground track

The orbit is defined by the following mean orbital elements,

1 22639U          26087.90673661 +.00000000 +00000-0 +69542-4 0 00006
2 22639  69.9198 165.2892 0065849 301.9297  57.5433 14.32955246    00
Epoch (UTC): 28 March 2026 21:45:42
Eccentricity: 0.0065849
inclination: 69.9198°
perigee height: 735 km
apogee height: 829 km
right ascension of ascending node: 165.2892°
argument of perigee: 301.9297°
revolutions per day: 14.32955246
mean anomaly at epoch: 57.5433°

The dashed part of the orbit path shows where the satellite is in the earth's shadow,  

DLR